Location: Boiro
(42.6475°N, 8.8834°W)
Time: 04:09:56
(UTC+02:00)

LINGQIAO VIDEO B - Pass Details

Date: 08 July 2022
Orbit: 636 x 662 km, 97.7° (Epoch: 14 August)

Event Time Altitude Azimuth Distance (km) Brightness Sun altitude
Rises 00:05:48 0° 216° (SW) 2,974 ? -15.7°
Reaches altitude 10° 00:09:21 10° 246° (WSW) 2,074 ? -16.1°
Maximum altitude 00:11:15 12° 271° (W) 1,920 ? -16.3°
Drops below altitude 10° 00:13:09 10° 296° (WNW) 2,085 ? -16.5°
Sets 00:16:45 0° 326° (NW) 3,006 ? -16.9°
